Content
SEND FEEDBACK

Daily
Averages
Monthly
Summary
The Bahamas

ELEUTHERA, THE BAHAMAS


Home > Caribbean > The Bahamas
Elevation: 15 feet     Latitude: 25 17N     Longitude: 076 19W

WEATHER
 
SELECT A DAY
Number of Records: 162,786;   Date Range: 6/30/96 - 10/30/14
 
SHARE

PRINT THIS DATA

[ ← Previous Day ]
WEATHER ALMANAC - FEBRUARY 3, 2013
[ Next Day → ]
[ °C ]   °F
Weather ElementAverageHighLow
Temperature68.2 °F75.2 °F (1:00 pm)60.8 °F (4:00 am)
Dewpoint55.5 °F58 °F (4:00 am)51.8 °F (4:00 pm)
Humidity63.5 %88 % (4:00 am)34 % (4:00 pm)
Barometer30.08 in30.14 in (10:00 am)30.03 in (4:00 am)
Wind Speed7.5 mph69 mph (4:00 pm)
Weather ElementAverage
Visibility6.8 mi
Wind DirectionSSW (191.7 °)

Weather ElementTotal
Precipitation---
Cooling Degree Days3 (Base 65)
Growing Degree Days18 (Base 50)
Averaged from 27 records on February 3, 2013
WEATHER CONDITIONS BREAKOUT
WIND DIRECTION BREAKOUT
WEATHER BY HOUR - FEBRUARY 3, 2013
[ °C ]   °F
Local TimeTemperatureDewpointHumidityBarometerVisibilityWind DirectionWind SpeedGust SpeedPrecipitationEventsConditions
1:00 AM62.0 °F57.0 °F78 %30.10 in9.0 miCalmScattered Clouds
1:00 AM62.6 °F57.2 °F82 %30.09 in6.2 miCalmPartly Cloudy
2:00 AM62.6 °F57.2 °F82 %30.07 in6.2 miCalmPartly Cloudy
3:00 AM62.6 °F57.2 °F82 %30.05 in6.2 miCalmPartly Cloudy
4:00 AM61.0 °F58.0 °F85 %30.04 in9.0 miCalmScattered Clouds
4:00 AM60.8 °F57.2 °F88 %30.03 in6.2 miCalmPartly Cloudy
5:00 AM60.8 °F55.4 °F82 %30.04 in6.2 miCalmPartly Cloudy
6:00 AM62.6 °F57.2 °F82 %30.04 in6.2 miCalmScattered Clouds
7:00 AM63.0 °F58.0 °F78 %30.07 in9.0 miCalmPartly Cloudy
7:00 AM62.6 °F57.2 °F82 %30.07 in6.2 miCalmScattered Clouds
9:00 AM71.6 °F57.2 °F60 %30.11 in6.2 miNorth (10°)6.9 mphScattered Clouds
10:00 AM73.0 °F56.0 °F45 %30.14 in9.0 miNorth9.2 mphMostly Cloudy
10:00 AM73.4 °F55.4 °F53 %30.14 in6.2 miNorth (360°)9.2 mphScattered Clouds
11:00 AM71.6 °F57.2 °F60 %30.14 in6.2 miNorth (350°)6.9 mphScattered Clouds
12:00 PM73.4 °F55.4 °F53 %30.13 in6.2 miNNW (340°)11.5 mphScattered Clouds
1:00 PM75.2 °F55.4 °F50 %30.11 in6.2 miNNW (340°)16.1 mphMostly Cloudy
3:00 PM73.4 °F53.6 °F50 %30.06 in6.2 miNorth (360°)11.5 mphMostly Cloudy
4:00 PM75.0 °F52.0 °F34 %30.06 in9.0 miNNW (330°)69.0 mphScattered Clouds
4:00 PM75.2 °F51.8 °F44 %30.06 in6.2 miNorth (360°)9.2 mphScattered Clouds
5:00 PM71.6 °F57.2 °F60 %30.06 in6.2 miNorth (360°)6.9 mphScattered Clouds
6:00 PM71.6 °F53.6 °F53 %30.06 in6.2 miNorth (360°)9.2 mphScattered Clouds
7:00 PM69.8 °F53.6 °F56 %30.07 in6.2 miNorth (360°)6.9 mphScattered Clouds
8:00 PM69.8 °F53.6 °F56 %30.08 in6.2 miNorth (360°)4.6 mphScattered Clouds
9:00 PM69.8 °F53.6 °F56 %30.09 in6.2 miNNW (330°)6.9 mphScattered Clouds
10:00 PM69.0 °F53.0 °F47 %30.09 in9.0 miNorth6.9 mphPartly Cloudy
10:00 PM69.8 °F53.6 °F56 %30.09 in6.2 miNorth (360°)6.9 mphScattered Clouds
11:00 PM68.0 °F53.6 °F60 %30.09 in6.2 miNNE (20°)4.6 mphScattered Clouds
Hourly data recorded from MYEM, located miles away from Eleuthera, The Bahamas







STORIES FROM OUR PARTNERS